Regional Weather Roundup
Issued by NWS New Orleans/Baton Rouge, LA

Home | Current Version | Previous Version | Text Only | Print | Product List | Glossary On
Versions: 1 2 3 4 5 6 7 8 9 10 11 12 13 14 15 16 17 18 19 20 21 22 23 24 25 26 27 28 29 30 31 32 33 34 35 36 37 38 39 40 41 42 43 44 45 46 47 48 49 50
592
ASUS44 KLIX 220201
RWRLIX
NEW ORLEANS REGIONAL WEATHER ROUNDUP
NATIONAL WEATHER SERVICE NEW ORLEANS LA
900 PM CDT TUE OCT 21 2014

NOTE: "FAIR" INDICATES FEW OR NO CLOUDS BELOW 12,000 FEET WITH NO
      SIGNIFICANT WEATHER AND/OR OBSTRUCTIONS TO VISIBILITY.
      SKY/WX - SKY CONDITION AND SIGNIFICANT WEATHER.
      TMP - AIR TEMPERATURE.     DP    - DEWPOINT TEMPERATURE.
      RH  - RELATIVE HUMIDITY.   PRES  - PRESSURE.
      HI  - HEAT INDEX.          WCI   - WIND CHILL INDEX.

*  THESE STATIONS ARE NOT NWS OR FAA STATIONS AND ARE NOT UNDER
   NWS QUALITY CONTROL.

LAZ038-040-048-061>063-065>067-069-220300-
SOUTHEAST LOUISIANA

CITY           SKY/WX    TMP DP  RH WIND       PRES   REMARKS
N.O. AUDUBON     N/A     67  61  81 MISG        N/A
N.O. INTL ARPT CLEAR     69  57  65 CALM      30.01R
N.O. LAKEFRONT CLEAR     74  62  66 N7        30.01R
N.O. DOWNTOWN*   N/A     73  54  49 CALM      30.01S
SLIDELL        CLEAR     61  58  90 CALM      30.02R
BATON ROUGE    CLEAR     64  59  83 CALM      30.03R
BOOTHVILLE     CLEAR     69  62  78 CALM      30.01R
BELLE CHASSE   CLEAR     59  56  89 CALM      30.01R
BOGALUSA*        N/A     61  56  83 CALM      30.04R
NEW ROADS*       N/A     64  59  83 N3        30.03R
GONZALES*        N/A     62  62 100 CALM      30.01R
HAMMOND*       NOT AVBL
HOUMA*         CLEAR     60  57  89 CALM      30.01R
PORT FOURCHON* CLEAR     72  59  64 NE6       30.04R

$$

MSZ070-080>082-220300-
SOUTHERN MISSISSIPPI

CITY           SKY/WX    TMP DP  RH WIND       PRES   REMARKS
MCCOMB         CLEAR     62  56  80 N3        30.03R
GULFPORT       CLEAR     62  58  86 NW3       30.01R
BILOXI         CLEAR     68  62  80 VRB1      30.01R
PASCAGOULA     CLEAR     55  53  93 CALM      30.02R
STENNIS ARPT*  CLEAR     61  57  88 CALM      30.02R

$$

COASTAL OBSERVATIONS
LAKE AND NEARSHORE STATIONS

STATION/POSITION TIME  TEMP    WIND        PRES    WAVE
                       AIR SEA DIR/SP/G            HT/PER
                 (UTC) (F)     (DEG/KT/KT) (MB)    (FT/S)
PASCAGOULA       0100   67     290/  4/  5 1015.5
WAVELAND YACHT   0100   69     310/  2/  3 1015.3
GRAND ISLE       0100   72 76   90/  4/  5 1016.5
SOUTHWEST PASS   0100   73 84              1016.1
NEW CANAL        0100   75 73   30/  5/  6 1016.2
SHELL BEACH      0100   70 70   CALM  /  1 1015.7

OFFSHORE STATIONS

STATION/POSITION TIME  TEMP    WIND        PRES    WAVE
                       AIR SEA DIR/SP/G            HT/PER
                 (UTC) (F)     (DEG/KT/KT) (MB)    (FT/S)
64 S DAUPHIN ISL 0138   74 79   40/ 10/ 10 1016.4    2/ 4

$$




USA.gov is the U.S. government's official web portal to all federal, state and local government web resources and services.